[[{"header":{"parameterUnit":"m.s-1","parameterCategory":1,"la1":30.2991,"la2":30.254,"lo1":-89.0895,"lo2":-89.0444,"dy":0.0017,"dx":0.0017,"nx":28,"ny":28,"refTime":"2024-04-30T03:00:00:Z","depth":0,"parameterNumber":2,"parameterNumberName":"U-component_of_WINDS"},"data":[0,0,0,0,0,0,0,0,0,0,0,0,0,0,0,0,0,0,0,0,0,0,0,0,0,0,0,0,0,0,0,0,0,0,0,0,0,0,0,0,0,0,0,0,0,0,0,0,0,0,0,0,0,0,0,0,0,0,0.922,0.922,0,0.9234,0.9234,0.9235,0.9204,0.9203,0.9202,0.9201,0.9217,0.9218,0.922,0,0,0,0,0,0,0,0,0,0,0,0,0,0.9166,0.9168,0.922,0.922,0.922,0.9234,0.9234,0.9235,0.9204,0.9203,0.9201,0.92,0.9216,0.9218,0.922,0,0,0,0,0,0,0,0,0,0,0,0,0,0.9186,0.9168,0.922,0.9206,0.9205,0.9234,0.9234,0.9235,0.9204,0.9203,0.9201,0.92,0.9216,0.9218,0.922,0.9263,0,0,0.9226,0.9227,0,0,0,0,0,0,0,0,0.9185,0.9188,0.9208,0.9207,0.9206,0.9215,0.9222,0.9244,0.9204,0.9205,0.9201,0.9199,0.9218,0.922,0.9226,0.9264,0.9264,0.9226,0.9228,0.9229,0.9229,0,0,0,0,0,0,0,0.9184,0.9187,0.9225,0.9208,0.9207,0.92,0.9201,0.9226,0.9219,0.9204,0.9202,0.9204,0.9217,0.9224,0.9226,0.9265,0.9226,0.9228,0.9229,0.923,0.9339,0.9341,0,0,0,0,0,0,0.9184,0.9186,0.9225,0.9226,0.9192,0.9202,0.9203,0.9214,0.9219,0.9218,0.9206,0.9203,0.9221,0.9223,0.9226,0.9278,0.9229,0.923,0.9232,0.9338,0.934,0.9342,0,0,0,0,0,0,0.9183,0.9188,0.9224,0.9206,0.921,0.9205,0.9217,0.9215,0.9222,0.922,0.9219,0.9214,0.922,0.9223,0.9254,0.9278,0.9231,0.9233,0.9336,0.9338,0.9341,0.9381,0,0,0,0,0,0,0.9182,0.9187,0.9203,0.9206,0.9211,0.9252,0.9218,0.9216,0.9225,0.9222,0.9227,0.9227,0.9219,0.9251,0.9256,0.928,0.9235,0.9334,0.9337,0.934,0.9377,0.9384,0.939,0,0,0,0,0,0.918,0.9214,0.9204,0.9209,0.9231,0.9253,0.9256,0.9246,0.9227,0.9244,0.9242,0.9226,0.9274,0.9255,0.926,0.9285,0.9332,0.9336,0.934,0.9374,0.9383,0.939,0,0,0,0,0,0,0.9215,0.9214,0.9203,0.924,0.9247,0.9248,0.9268,0.9255,0.9268,0.9264,0.9252,0.9253,0.9287,0.9288,0.9267,0.9327,0.93,0.9305,0.9325,0.9333,0.9339,0.9338,0.9237,0,0,0,0,0,0.9227,0.9244,0.9243,0.9275,0.9279,0.9273,0.9283,0.9274,0.9281,0.9284,0.9285,0.9293,0.931,0.9321,0.9336,0.9377,0.9378,0.9396,0.9403,0.9408,0.9413,0.9436,0.9444,0.9354,0.9354,0.9354,0,0,0.9251,0.9253,0.9265,0.9282,0.9287,0.9306,0.9276,0.9298,0.9312,0.9288,0.9317,0.9318,0.9326,0.9362,0.9378,0.9364,0.9438,0.9413,0.9417,0.9419,0.944,0.9449,0.9457,0.9356,0.9356,0.9356,0,0,0.9307,0.931,0.9337,0.9342,0.9349,0.9345,0.9352,0.9355,0.9355,0.9384,0.9366,0.9383,0.9412,0.9418,0.9426,0.9484,0.947,0.9489,0.9523,0.9545,0.9553,0.9559,0.9581,0.9589,0.9493,0.9494,0.9494,0,0.9337,0.9365,0.9353,0.9376,0.9385,0.9363,0.9391,0.9397,0.9408,0.9415,0.94,0.9436,0.9439,0.9477,0.9492,0.9498,0.9505,0.9489,0.9552,0.9559,0.9564,0.9585,0.9593,0.9496,0.9496,0.9495,0.9495,0,0.9403,0.9423,0.9444,0.9456,0.9467,0.9492,0.9484,0.9497,0.9487,0.9485,0.9515,0.9519,0.9535,0.9543,0.9534,0.958,0.9571,0.9554,0.9528,0.9575,0.9595,0.9603,0.9499,0.9499,0.9498,0.9497,0,0,0.9482,0.9486,0.9494,0.95,0.9506,0.9521,0.9546,0.9561,0.9573,0.9581,0.9603,0.9628,0.9612,0.962,0.9612,0.9631,0.9678,0.9612,0.9612,0.9625,0.973,0.9744,0.9753,0.9669,0.967,0.9671,0.973,0,0.9537,0.958,0.957,0.9612,0.9631,0.961,0.9632,0.9638,0.9637,0.9653,0.9651,0.9669,0.9647,0.9652,0.967,0.9669,0.97,0.9664,0.9689,0.969,0.9689,0.9763,0.9778,0.9833,0.9737,0.9739,0.9739,0,0.9609,0.962,0.9664,0.9668,0.9675,0.9695,0.9709,0.9724,0.9731,0.9728,0.9738,0.9726,0.9751,0.9723,0.9758,0.9734,0.9744,0.9745,0.9747,0.975,0.9719,0.977,0.985,0.9859,0.9751,0.975,0.9749,0,0.9663,0.969,0.972,0.9725,0.9729,0.9744,0.9747,0.9752,0.9762,0.9774,0.9781,0.9795,0.9804,0.9815,0.9808,0.9788,0.9845,0.9816,0.9844,0.9845,0.9858,0.9858,0.9943,0.9862,0.9862,0.9862,0.9862,0,0.9728,0.9756,0.9745,0.9763,0.9794,0.9782,0.9814,0.9814,0.9819,0.9838,0.9821,0.9839,0.9827,0.9844,0.9838,0.9869,0.9873,0.9872,0.987,0.9874,0.9875,0.9881,0.9878,0.9864,0.9864,0.9863,0.9863,0,0.9795,0.9788,0.982,0.9821,0.9822,0.9845,0.9847,0.9865,0.9861,0.9886,0.9891,0.9886,0.9905,0.9899,0.992,0.9916,0.9955,0.9948,0.9953,0.9951,0.9981,0.9979,1.0074,1.0087,0.9997,0.9998,0.9998,0,0.9837,0.9858,0.9862,0.9873,0.9877,0.9895,0.9905,0.9894,0.9906,0.9915,0.9932,0.995,0.9964,0.9996,0.9995,1.0011,1.0005,1.0037,1.0007,1.0011,1.0007,1.0006,1.0009,1.0044,1.0045,1.0046,1.0046,0,0.9913,0.9909,0.9924,0.9938,0.995,0.9961,0.997,0.9981,0.997,0.9984,1.0003,1.0014,1.0036,1.0054,1.0068,1.0072,1.0058,1.0056,1.0063,1.0068,1.0071,1.0071,0.9971,1.0054,1.0053,1.0053,1.0052,1.0052,0.997,0.9988,0.9994,1.0011,1.0017,1.0026,1.0043,1.0042,1.0058,1.0074,1.0067,1.009,1.0097,1.0115,1.012,1.0138,1.0125,1.0136,1.0139,1.0142,1.0147,1.0067,1.014,1.014,1.014,1.014,1.0139,0,1.0046,1.0049,1.0065,1.0078,1.0092,1.0077,1.0087,1.01,1.012,1.0127,1.0141,1.0164,1.0182,1.0182,1.0199,1.0213,1.0208,1.0218,1.0218,1.0219,1.0156,1.0149,1.0223,1.0223,1.0223,1.0223,1.0223,1.0223,1.0088,1.0118,1.0115,1.0148,1.015,1.0173,1.0179,1.0188,1.0194,1.022,1.0235,1.0234,1.0239,1.0256,1.0272,1.0271,1.0279,1.0292,1.029,1.0231,1.0223,1.0215,1.0208,1.0294,1.0294,1.0351,1.0351,1.0352]},{"header":{"parameterUnit":"m.s-1","parameterCategory":1,"la1":30.2991,"la2":30.254,"lo1":-89.0895,"lo2":-89.0444,"dy":0.0017,"dx":0.0017,"nx":28,"ny":28,"refTime":"2024-04-30T03:00:00:Z","depth":0,"parameterNumber":3,"parameterNumberName":"V-component_of_WINDS"},"data":[0,0,0,0,0,0,0,0,0,0,0,0,0,0,0,0,0,0,0,0,0,0,0,0,0,0,0,0,0,0,0,0,0,0,0,0,0,0,0,0,0,0,0,0,0,0,0,0,0,0,0,0,0,0,0,0,0,0,-0.104,-0.104,0,-0.105,-0.105,-0.105,-0.1056,-0.1056,-0.1056,-0.1056,-0.1064,-0.1065,-0.1065,0,0,0,0,0,0,0,0,0,0,0,0,0,-0.1027,-0.1027,-0.104,-0.104,-0.104,-0.105,-0.105,-0.105,-0.1056,-0.1056,-0.1056,-0.1056,-0.1064,-0.1065,-0.1065,0,0,0,0,0,0,0,0,0,0,0,0,0,-0.1034,-0.1027,-0.104,-0.1044,-0.1045,-0.105,-0.105,-0.105,-0.1056,-0.1056,-0.1056,-0.1056,-0.1064,-0.1064,-0.1065,-0.1066,0,0,-0.1066,-0.1066,0,0,0,0,0,0,0,0,-0.1034,-0.1035,-0.1044,-0.1044,-0.1045,-0.1052,-0.1049,-0.1055,-0.1056,-0.1052,-0.1056,-0.1056,-0.106,-0.1061,-0.1062,-0.1066,-0.1067,-0.1066,-0.1066,-0.1066,-0.1066,0,0,0,0,0,0,0,-0.1033,-0.1034,-0.1044,-0.1044,-0.1044,-0.1046,-0.1047,-0.105,-0.1055,-0.1052,-0.1052,-0.1054,-0.106,-0.1062,-0.1063,-0.1067,-0.1066,-0.1066,-0.1066,-0.1066,-0.1075,-0.1075,0,0,0,0,0,0,-0.1032,-0.1034,-0.1044,-0.1044,-0.1039,-0.1046,-0.1047,-0.1049,-0.1055,-0.1056,-0.1054,-0.1054,-0.1062,-0.1062,-0.1063,-0.1067,-0.1066,-0.1066,-0.1066,-0.1075,-0.1075,-0.1075,0,0,0,0,0,0,-0.1032,-0.1033,-0.1043,-0.1039,-0.1041,-0.1046,-0.1049,-0.105,-0.1051,-0.1057,-0.1058,-0.1054,-0.1062,-0.1063,-0.1066,-0.1067,-0.1066,-0.1067,-0.1075,-0.1075,-0.1075,-0.1073,0,0,0,0,0,0,-0.1031,-0.1033,-0.1033,-0.1039,-0.1041,-0.1046,-0.1049,-0.105,-0.1052,-0.1053,-0.1058,-0.1058,-0.1062,-0.1065,-0.1066,-0.1067,-0.1067,-0.1075,-0.1075,-0.1075,-0.1073,-0.1073,-0.1073,0,0,0,0,0,-0.1031,-0.1031,-0.1033,-0.1034,-0.1041,-0.1046,-0.1047,-0.1051,-0.1052,-0.1053,-0.1057,-0.1058,-0.1067,-0.1066,-0.1067,-0.1068,-0.1075,-0.1075,-0.1075,-0.1073,-0.1073,-0.1073,0,0,0,0,0,0,-0.1023,-0.1032,-0.1034,-0.1036,-0.104,-0.1047,-0.1047,-0.105,-0.1054,-0.1054,-0.1059,-0.106,-0.1063,-0.1066,-0.1065,-0.1071,-0.1071,-0.1071,-0.1069,-0.1069,-0.1069,-0.1069,-0.1067,0,0,0,0,0,-0.1022,-0.1025,-0.1032,-0.1033,-0.1036,-0.1041,-0.1043,-0.1047,-0.1051,-0.1053,-0.1057,-0.1061,-0.1065,-0.1067,-0.107,-0.1073,-0.1075,-0.1075,-0.1075,-0.1075,-0.1075,-0.1079,-0.1079,-0.1075,-0.1075,-0.1075,0,0,-0.1019,-0.1024,-0.1026,-0.1032,-0.1036,-0.104,-0.1043,-0.1046,-0.1049,-0.1053,-0.1057,-0.106,-0.1065,-0.1069,-0.1071,-0.1071,-0.1077,-0.1075,-0.1075,-0.1075,-0.1079,-0.108,-0.108,-0.1076,-0.1076,-0.1076,0,0,-0.1016,-0.102,-0.1022,-0.1026,-0.1033,-0.1037,-0.1038,-0.1044,-0.1047,-0.1052,-0.1055,-0.1059,-0.1065,-0.1069,-0.1072,-0.1074,-0.1076,-0.1075,-0.1075,-0.1079,-0.1079,-0.1079,-0.1082,-0.1082,-0.1075,-0.1075,-0.1075,0,-0.1012,-0.1017,-0.1023,-0.1027,-0.103,-0.1036,-0.1039,-0.1043,-0.1049,-0.1052,-0.1052,-0.1062,-0.1065,-0.1072,-0.1072,-0.1074,-0.1076,-0.1074,-0.1078,-0.1079,-0.1079,-0.1082,-0.1082,-0.1075,-0.1075,-0.1075,-0.1075,0,-0.1013,-0.1017,-0.1018,-0.1026,-0.103,-0.1033,-0.104,-0.1043,-0.1047,-0.1051,-0.1057,-0.1062,-0.1068,-0.1069,-0.1071,-0.1076,-0.1077,-0.1078,-0.1078,-0.1079,-0.1082,-0.1083,-0.1075,-0.1075,-0.1075,-0.1075,0,0,-0.1004,-0.1017,-0.1017,-0.1022,-0.1031,-0.1034,-0.1039,-0.1046,-0.1049,-0.1054,-0.1059,-0.1065,-0.1067,-0.1071,-0.1074,-0.1077,-0.1081,-0.1078,-0.1078,-0.108,-0.1089,-0.1088,-0.1089,-0.1082,-0.1083,-0.1083,-0.1089,0,-0.1003,-0.1012,-0.1018,-0.1025,-0.103,-0.1036,-0.104,-0.1047,-0.1051,-0.1057,-0.1062,-0.1067,-0.1068,-0.1071,-0.1074,-0.108,-0.1083,-0.1079,-0.1088,-0.1088,-0.1087,-0.109,-0.1089,-0.1095,-0.1089,-0.109,-0.109,0,-0.1003,-0.101,-0.1017,-0.1028,-0.103,-0.1034,-0.1042,-0.1047,-0.1054,-0.1058,-0.1063,-0.1067,-0.1073,-0.1073,-0.1083,-0.108,-0.1084,-0.1087,-0.1088,-0.1089,-0.1089,-0.1093,-0.1096,-0.1098,-0.1091,-0.1091,-0.1091,0,-0.0998,-0.1009,-0.1015,-0.1019,-0.1031,-0.1034,-0.1039,-0.1047,-0.1051,-0.1058,-0.1062,-0.1069,-0.1073,-0.1079,-0.1085,-0.1084,-0.1095,-0.1095,-0.1098,-0.1098,-0.11,-0.11,-0.1106,-0.1101,-0.1101,-0.1101,-0.1101,0,-0.0997,-0.1002,-0.1014,-0.1018,-0.1024,-0.1031,-0.1037,-0.1043,-0.105,-0.1056,-0.1062,-0.1067,-0.1075,-0.1081,-0.1086,-0.1094,-0.1096,-0.1099,-0.1101,-0.1099,-0.1099,-0.1102,-0.1103,-0.1101,-0.1101,-0.1101,-0.1101,0,-0.0992,-0.1,-0.1008,-0.102,-0.1023,-0.1027,-0.1037,-0.1042,-0.1048,-0.1055,-0.1058,-0.1067,-0.1075,-0.1082,-0.1092,-0.1096,-0.1105,-0.1106,-0.1103,-0.1104,-0.1108,-0.1108,-0.1116,-0.1118,-0.1111,-0.1111,-0.1111,0,-0.0992,-0.0996,-0.1008,-0.1013,-0.1019,-0.1026,-0.1031,-0.1039,-0.1045,-0.1056,-0.106,-0.1069,-0.1076,-0.109,-0.1097,-0.1106,-0.1108,-0.111,-0.1109,-0.1109,-0.111,-0.111,-0.1111,-0.1111,-0.1111,-0.1111,-0.1111,0,-0.099,-0.0994,-0.1002,-0.1012,-0.1019,-0.1027,-0.1035,-0.1038,-0.1048,-0.1054,-0.1064,-0.107,-0.1082,-0.1092,-0.1102,-0.1107,-0.1111,-0.1111,-0.1113,-0.1112,-0.111,-0.1113,-0.1104,-0.1111,-0.1111,-0.1111,-0.1111,-0.1111,-0.0988,-0.0993,-0.1004,-0.1013,-0.102,-0.1028,-0.1034,-0.1042,-0.105,-0.1061,-0.1066,-0.1076,-0.1085,-0.11,-0.1105,-0.1114,-0.1114,-0.1116,-0.1117,-0.1117,-0.1118,-0.1109,-0.1115,-0.1115,-0.1115,-0.1115,-0.1115,0,-0.0988,-0.0996,-0.1004,-0.1017,-0.1024,-0.1028,-0.1038,-0.1044,-0.1054,-0.1063,-0.1071,-0.1083,-0.1093,-0.1102,-0.1113,-0.1118,-0.112,-0.112,-0.1121,-0.1122,-0.1116,-0.1115,-0.1119,-0.1119,-0.1119,-0.1119,-0.1119,-0.1119,-0.0989,-0.0999,-0.1005,-0.1019,-0.1026,-0.1037,-0.1043,-0.1051,-0.1058,-0.1072,-0.1081,-0.1087,-0.1097,-0.1109,-0.1118,-0.1121,-0.1125,-0.1125,-0.1128,-0.1123,-0.1122,-0.1122,-0.112,-0.1126,-0.1126,-0.1134,-0.1134,-0.1134]}]]